Location: B?ogocice
(50.2413°N, 20.2361°E)
Time: 00:22:13
(UTC+00:00)

Cosmos 1726 Rocket - Pass Details

Date: 15 June 2024
Orbit: 599 x 626 km, 82.5° (Epoch: 18 July)

Event Time Altitude Azimuth Distance (km) Brightness Sun altitude
Rises 00:53:24 0° 353° (N) 2,926 7.9 -10.7°
Reaches altitude 10° 00:55:42 10° 358° (N) 2,012 7.1 -10.5°
Maximum altitude 01:00:04 52° 76° (ENE) 783 4.4 -10.1°
Drops below altitude 10° 01:04:22 10° 153° (SSE) 1,986 5.9 -9.8°
Sets 01:06:37 0° 158° (SSE) 2,883 6.7 -9.6°
